Location: Bennemühlen
(52.5740°N, 9.7135°E)
Time: 20:42:12
(UTC+00:00)

Injun/Solrad 3 - Visible Passes

Search period start: 15 February 2026 00:00
Search period end: 25 February 2026 00:00
Orbit: 873 x 983 km, 66.8° (Epoch: 15 February)

Date Brightness Start Highest point End Pass type
(mag) Time Alt. Az. Time Alt. Az. Time Alt. Az.
15 Feb 8.7 17:43:25 10° NW 17:48:56 35° NNE 17:53:03 17° E visible
15 Feb 7.8 19:29:54 10° NW 19:36:02 82° SW 19:36:43 71° S visible
15 Feb 10.1 21:17:29 10° WNW 21:20:23 18° W 21:20:23 18° W visible
16 Feb 8.4 17:54:28 10° NW 18:00:15 43° NE 18:04:21 19° E visible
16 Feb 8.2 19:41:00 10° NW 19:47:02 60° WSW 19:48:01 54° SSW visible
16 Feb 10.4 21:29:38 10° WNW 21:31:40 13° W 21:31:40 13° W visible
17 Feb 8.1 18:05:30 10° NW 18:11:29 54° NE 18:15:44 20° ESE visible
17 Feb 8.8 19:52:11 10° NW 19:57:57 43° WSW 19:59:24 37° SSW visible
18 Feb 7.9 18:16:32 10° NW 18:22:40 70° NE 18:27:15 19° SE visible
18 Feb 9.4 20:03:28 10° NW 20:08:47 31° WSW 20:10:55 25° SW visible
19 Feb 7.9 18:27:35 10° NW 18:33:45 89° SW 18:38:54 16° SE visible
19 Feb 9.9 20:14:57 10° WNW 20:19:32 22° WSW 20:22:36 16° SW visible
20 Feb 8.2 18:38:40 10° NW 18:44:46 67° WSW 18:50:45 11° SSE visible
20 Feb 10.4 20:26:50 10° WNW 20:30:12 15° WSW 20:33:36 10° SW visible
21 Feb 8.8 18:49:49 10° NW 18:55:42 48° WSW 19:01:43 10° S visible
22 Feb 8.0 17:14:13 10° NW 17:20:19 64° NE 17:26:34 10° SE visible
22 Feb 9.4 19:01:03 10° NW 19:06:33 35° WSW 19:12:10 10° S visible
23 Feb 8.0 17:25:16 10° NW 17:31:26 84° NE 17:37:45 10° SE visible
23 Feb 10.0 19:12:28 10° WNW 19:17:21 25° WSW 19:22:18 10° SSW visible
24 Feb 8.2 17:36:19 10° NW 17:42:29 74° SW 17:48:46 10° SSE visible
24 Feb 10.5 19:24:10 10° WNW 19:28:02 17° WSW 19:31:57 10° SW visible
